Date String (YYYY-MM-DD hh:mm:ss) UTC,Instrument flags,Ambient pressure (hPa),Sample flow (lpm),Bypass flow (lpm),Sample temperature (°C),Ambient temperature (°C),ASC tube jacket temperature (°C),LED temperature (°C),Box temperature (°C),Sample RH (%),Span deviation,Mass concentration (μg/m³),Mass concentration (μg/m³),Mass concentration (μg/m³)
DateTimeUTC,F1_M11,P_M11,Q1_M11,Q2_M11,T1_M11,T2_M11,T3_M11,T4_M11,T5_M11,U1_M11,ZSPAN_M11,X0_M11,X2_M11,X1_M11
2022-06-04 22:00:00,,0820.2,5.00,0.00,29.1,27.9,00.0,37.9,31.1,17.8,0000.0,0009.09,0003.65,0002.43
2022-06-04 22:01:00,,0820.3,4.99,0.00,29.2,28.1,00.0,37.9,31.2,16.7,0000.0,0009.31,0003.68,0002.43
2022-06-04 22:02:00,,0820.3,5.00,0.00,29.2,28.2,00.0,38.0,31.2,16.7,0000.0,0009.70,0003.70,0002.45
2022-06-04 22:03:00,,0820.3,5.00,0.00,29.3,28.4,00.0,38.0,31.3,15.9,0000.0,0009.77,0003.71,0002.47
2022-06-04 22:04:00,,0820.3,5.00,0.00,29.3,28.5,00.0,38.0,31.3,14.8,0000.0,0010.00,0003.67,0002.48
2022-06-04 22:05:00,,0820.4,5.00,0.00,29.3,28.6,00.0,38.1,31.4,14.9,0000.0,0010.16,0003.64,0002.49
2022-06-04 22:06:00,,0820.6,4.99,0.00,29.4,28.4,00.0,38.0,31.3,15.5,0000.0,0011.04,0003.63,0002.49
2022-06-04 22:07:00,,0820.7,5.00,0.00,29.3,27.5,00.0,38.0,31.1,15.4,0000.0,0011.44,0003.59,0002.47
2022-06-04 22:08:00,,0820.6,5.01,0.00,29.2,26.9,00.0,37.9,30.9,16.3,0000.0,0011.89,0003.62,0002.46
2022-06-04 22:09:00,,0820.6,4.99,0.00,29.2,26.8,00.0,37.9,30.8,17.1,0000.0,0012.62,0003.62,0002.44
2022-06-04 22:10:00,,0821.4,5.01,0.00,29.1,26.9,00.0,37.9,30.8,16.1,0000.0,0012.67,0003.64,0002.43
2022-06-04 22:11:00,,0821.4,4.99,0.00,29.1,27.1,00.0,37.9,30.9,15.6,0000.0,0012.46,0003.57,0002.40
2022-06-04 22:12:00,,0821.0,4.98,0.00,29.0,27.2,00.0,37.9,30.9,15.0,0000.0,0011.42,0003.55,0002.39
2022-06-04 22:13:00,,0821.0,5.01,0.00,29.0,27.4,00.0,37.9,30.9,15.8,0000.0,0010.88,0003.51,0002.35
2022-06-04 22:14:00,,0821.1,5.00,0.00,29.1,27.6,00.0,37.9,31.0,15.3,0000.0,0010.77,0003.48,0002.32
2022-06-04 22:15:00,,0821.0,4.99,0.00,29.1,27.7,00.0,37.9,31.0,16.0,0000.0,0010.17,0003.44,0002.30
2022-06-04 22:16:00,,0821.1,5.00,0.00,29.1,27.9,00.0,37.9,31.1,16.6,0000.0,0010.16,0003.45,0002.31
2022-06-04 22:17:00,,0821.2,5.01,0.00,29.1,28.0,00.0,37.9,31.1,16.9,0000.0,0009.26,0003.49,0002.34
2022-06-04 22:18:00,,0821.3,5.01,0.00,29.1,28.1,00.0,38.0,31.1,16.5,0000.0,0008.67,0003.49,0002.38
2022-06-04 22:19:00,,0821.4,4.99,0.00,29.2,28.2,00.0,38.0,31.2,16.9,0000.0,0008.58,0003.45,0002.39
2022-06-04 22:20:00,,0821.4,4.99,0.00,29.2,28.3,00.0,38.0,31.2,17.9,0000.0,0008.06,0003.44,0002.41
2022-06-04 22:21:00,,0821.6,5.00,0.00,29.3,28.4,00.0,38.0,31.3,17.3,0000.0,0008.20,0003.43,0002.41
2022-06-04 22:22:00,,0821.3,5.00,0.00,29.3,28.4,00.0,38.0,31.3,16.8,0000.0,0008.25,0003.44,0002.42
2022-06-04 22:23:00,,0821.2,5.00,0.00,29.3,28.5,00.0,38.1,31.3,16.3,0000.0,0008.49,0003.43,0002.42
2022-06-04 22:24:00,,0821.1,5.00,0.00,29.3,27.9,00.0,38.0,31.2,16.2,0000.0,0008.60,0003.42,0002.42
2022-06-04 22:25:00,,0821.2,5.00,0.00,29.3,27.2,00.0,38.0,31.0,16.0,0000.0,0008.91,0003.45,0002.43
2022-06-04 22:26:00,,0821.2,4.99,0.00,29.2,27.1,00.0,37.9,30.9,16.6,0000.0,0009.01,0003.48,0002.43
2022-06-04 22:27:00,,0821.1,5.01,0.00,29.1,27.1,00.0,38.0,30.9,16.5,0000.0,0008.50,0003.45,0002.40
2022-06-04 22:28:00,,0821.1,5.00,0.00,29.1,27.2,00.0,38.0,30.9,16.4,0000.0,0008.44,0003.42,0002.36
2022-06-04 22:29:00,,0821.2,4.99,0.00,29.1,27.4,00.0,38.0,31.0,17.5,0000.0,0008.74,0003.44,0002.34
2022-06-04 22:30:00,,0821.2,5.01,0.00,29.1,27.6,00.0,38.0,31.0,16.8,0000.0,0009.06,0003.49,0002.33
2022-06-04 22:31:00,,0821.1,5.01,0.00,29.1,27.7,00.0,38.0,31.0,17.6,0000.0,0008.95,0003.46,0002.32
2022-06-04 22:32:00,,0821.0,5.00,0.00,29.1,27.9,00.0,38.0,31.1,17.6,0000.0,0009.21,0003.50,0002.32
2022-06-04 22:33:00,,0821.1,5.00,0.00,29.2,28.0,00.0,38.0,31.1,16.3,0000.0,0009.14,0003.49,0002.30
2022-06-04 22:34:00,,0821.1,4.99,0.00,29.2,28.1,00.0,38.0,31.2,15.6,0000.0,0008.88,0003.46,0002.27
2022-06-04 22:35:00,,0821.0,5.00,0.00,29.2,28.2,00.0,38.0,31.2,15.7,0000.0,0008.90,0003.47,0002.25
2022-06-04 22:36:00,,0820.9,4.99,0.00,29.3,28.3,00.0,38.0,31.3,16.9,0000.0,0008.77,0003.50,0002.24
2022-06-04 22:37:00,,0821.0,5.00,0.00,29.3,28.4,00.0,38.1,31.3,14.0,0000.0,0008.77,0003.51,0002.20
2022-06-04 22:38:00,,0821.0,4.99,0.00,29.3,28.5,00.0,38.1,31.3,14.0,0000.0,0008.92,0003.49,0002.18
2022-06-04 22:39:00,,0821.0,5.00,0.00,29.4,28.5,00.0,38.1,31.3,14.1,0000.0,0009.16,0003.47,0002.14
2022-06-04 22:40:00,,0820.9,5.01,0.00,29.4,27.8,00.0,38.1,31.2,14.5,0000.0,0008.99,0003.45,0002.10
2022-06-04 22:41:00,,0820.7,4.99,0.00,29.3,27.1,00.0,38.0,31.0,13.7,0000.0,0008.36,0003.45,0002.08
2022-06-04 22:42:00,,0820.5,4.99,0.00,29.2,27.0,00.0,38.0,30.9,14.6,0000.0,0008.31,0003.42,0002.05
2022-06-04 22:43:00,,0820.3,5.01,0.00,29.1,27.0,00.0,38.0,30.8,15.5,0000.0,0007.84,0003.36,0002.00
2022-06-04 22:44:00,,0820.2,4.99,0.00,29.1,27.1,00.0,38.0,30.9,16.2,0000.0,0007.88,0003.37,0001.99
2022-06-04 22:45:00,,0820.1,4.99,0.00,29.1,27.3,00.0,38.0,30.9,15.8,0000.0,0007.78,0003.34,0001.97
2022-06-04 22:46:00,,0820.1,4.99,0.00,29.1,27.4,00.0,38.0,30.9,15.7,0000.0,0007.55,0003.29,0001.96
2022-06-04 22:47:00,,0820.3,5.01,0.00,29.1,27.6,00.0,38.0,31.0,16.2,0000.0,0007.32,0003.21,0001.94
2022-06-04 22:48:00,,0820.3,5.00,0.00,29.1,27.7,00.0,38.0,31.0,17.3,0000.0,0007.43,0003.23,0001.95
2022-06-04 22:49:00,,0820.3,5.00,0.00,29.1,27.8,00.0,38.0,31.0,17.4,0000.0,0007.30,0003.26,0001.98
2022-06-04 22:50:00,,0820.3,4.99,0.00,29.1,27.9,00.0,38.0,31.1,17.5,0000.0,0006.88,0003.26,0001.98
2022-06-04 22:51:00,,0820.3,5.00,0.00,29.1,28.0,00.0,38.0,31.1,15.9,0000.0,0006.88,0003.24,0001.97
2022-06-04 22:52:00,,0820.3,5.00,0.00,29.2,28.1,00.0,38.0,31.1,16.2,0000.0,0006.98,0003.19,0001.95
2022-06-04 22:53:00,,0820.3,5.00,0.00,29.2,28.2,00.0,38.0,31.2,17.6,0000.0,0007.45,0003.20,0001.95
2022-06-04 22:54:00,,0820.5,4.99,0.00,29.2,28.3,00.0,38.0,31.2,18.1,0000.0,0007.35,0003.18,0001.95
2022-06-04 22:55:00,,0820.5,5.00,0.00,29.3,28.3,00.0,38.0,31.2,18.3,0000.0,0007.65,0003.17,0001.95
2022-06-04 22:56:00,,0820.4,4.99,0.00,29.3,28.4,00.0,38.1,31.3,17.4,0000.0,0007.92,0003.20,0001.96
2022-06-04 22:57:00,,0820.4,4.99,0.00,29.3,28.4,00.0,38.1,31.3,17.8,0000.0,0008.05,0003.25,0001.96
2022-06-04 22:58:00,,0820.3,5.00,0.00,29.3,28.5,00.0,38.1,31.3,16.1,0000.0,0008.15,0003.26,0001.94
2022-06-04 22:59:00,,0820.4,5.00,0.00,29.4,28.5,00.0,38.1,31.3,16.5,0000.0,0008.63,0003.20,0001.91
